sat.trackr.live / text

‹ back to catalog

STARLINK-35008

NORAD 65408 · 2025-192E

PAYLOAD ACTIVE UNKNOWN

§ Identity

Operator
Country
US
Launch date
2025-08-31
Launch site
AFETR
Launch vehicle
Mass (kg)
RCS (m²)

Purposes: comms

External: N2YO · Heavens-Above · Gunter

§ Orbital elements

Epoch: 2026-09-20T13:13:38.405280Z

Period
93.85 min
Inclination
53.1560°
Eccentricity
0.0000805
Mean motion
15.34412192 rev/d
Perigee alt
462.1 km
Apogee alt
463.2 km
Semi-major
6,840.8 km
B*
6.7081e-4
RAAN
45.4488°
Arg perigee
63.8273°
Mean anomaly
296.2813°
Rev number
5,924

§ Raw data

STARLINK-350081 65408U 25192E   26263.55113895  .00022365  00000+0  67081-3 0  99902 65408  53.1560  45.4488 0000805  63.8273 296.2813 15.34412192 59243

JSON: /api/v1/satellites/65408 · /tle

For live sub-satellite position, see the globe view (requires WebGL).

§ Visibility from observer

Set your observer location to see the next 7 days of passes ≥ 10°. The values pass through the URL so the page stays shareable.

No JS? Fill the form by hand. The geolocation button needs JavaScript.